[[{"header":{"parameterUnit":"m.s-1","parameterCategory":1,"la1":30.2991,"la2":30.254,"lo1":-89.0895,"lo2":-89.0444,"dy":0.0017,"dx":0.0017,"nx":28,"ny":28,"refTime":"2023-08-14T09:00:00:Z","depth":0,"parameterNumber":2,"parameterNumberName":"U-component_of_WINDS"},"data":[0,0,0,0,0,0,0,0,0,0,0,0,0,0,0,0,0,0,0,0,0,0,0,0,0,0,0,0,0,0,0,0,0,0,0,0,0,0,0,0,0,0,0,0,0,0,0,0,0,0,0,0,0,0,0,0,0,0,4.4187,4.4189,0,4.4353,4.4355,4.4357,4.4318,4.4315,4.4312,4.4309,4.4479,4.4486,4.4493,0,0,0,0,0,0,0,0,0,0,0,0,0,4.3836,4.3842,4.4187,4.4189,4.4191,4.4353,4.4355,4.4357,4.4318,4.4315,4.4311,4.4307,4.4476,4.4485,4.4494,0,0,0,0,0,0,0,0,0,0,0,0,0,4.3994,4.3845,4.4186,4.4191,4.4193,4.4352,4.4355,4.4358,4.4319,4.4314,4.431,4.4305,4.4473,4.4484,4.4495,4.4659,0,0,4.4529,4.4534,0,0,0,0,0,0,0,0,4.3985,4.4006,4.4188,4.4191,4.4194,4.431,4.4293,4.4459,4.432,4.4271,4.4308,4.4303,4.4426,4.4441,4.4483,4.4667,4.4675,4.453,4.4537,4.4542,4.4545,0,0,0,0,0,0,0,4.3974,4.3999,4.4252,4.4191,4.4194,4.4185,4.4202,4.4324,4.4373,4.4275,4.4273,4.4293,4.4427,4.4472,4.4486,4.4677,4.453,4.454,4.4547,4.4551,4.5003,4.5008,0,0,0,0,0,0,4.3961,4.399,4.4247,4.4257,4.4075,4.4195,4.4214,4.4277,4.4372,4.4382,4.4297,4.4291,4.4455,4.4473,4.4492,4.4689,4.4542,4.4552,4.4559,4.4998,4.5005,4.501,0,0,0,0,0,0,4.3953,4.3984,4.424,4.4123,4.4155,4.4206,4.4277,4.4283,4.4328,4.4388,4.4397,4.4334,4.4452,4.4476,4.4618,4.4695,4.4557,4.4568,4.4992,4.5,4.5007,4.5086,0,0,0,0,0,0,4.3943,4.3982,4.4045,4.4125,4.4162,4.4364,4.4282,4.429,4.4348,4.4341,4.4425,4.4435,4.445,4.4601,4.4629,4.4708,4.4576,4.4985,4.4996,4.5005,4.5076,4.5095,4.5111,0,0,0,0,0,4.3931,4.4061,4.4048,4.4079,4.4242,4.4368,4.4389,4.4404,4.4354,4.4418,4.4456,4.4432,4.4682,4.4616,4.4647,4.473,4.498,4.4993,4.5004,4.5069,4.5092,4.5111,0,0,0,0,0,0,4.3988,4.4071,4.4058,4.4218,4.4286,4.4362,4.4442,4.4428,4.4512,4.4503,4.4518,4.4537,4.4681,4.472,4.4645,4.4893,4.4824,4.4843,4.4862,4.4885,4.4902,4.4889,4.4586,0,0,0,0,0,4.4019,4.4116,4.4183,4.4317,4.4352,4.4391,4.4447,4.4453,4.4524,4.4553,4.4602,4.4672,4.4766,4.4828,4.4918,4.5082,4.5099,4.5155,4.5172,4.5186,4.5202,4.529,4.5315,4.5049,4.5049,4.5049,0,0,4.4085,4.4142,4.4202,4.433,4.4384,4.4482,4.4416,4.4524,4.4596,4.4569,4.4705,4.4744,4.4823,4.4976,4.5046,4.5013,4.5279,4.5201,4.5212,4.522,4.5305,4.533,4.5352,4.5057,4.5056,4.5055,0,0,4.4254,4.4308,4.4424,4.4479,4.4561,4.4587,4.4615,4.4692,4.4717,4.4853,4.4835,4.4922,4.5084,4.5141,4.5191,4.5381,4.5361,4.541,4.5501,4.5586,4.5607,4.5626,4.5692,4.5716,4.5425,4.5426,4.5426,0,4.4325,4.4473,4.4486,4.4595,4.4652,4.4631,4.4749,4.4802,4.4909,4.4948,4.491,4.5112,4.5164,4.533,4.5376,4.5418,4.5449,4.54,4.5603,4.5622,4.564,4.5703,4.5728,4.5431,4.543,4.543,4.5429,0,4.4555,4.4658,4.4742,4.4846,4.4912,4.5025,4.5055,4.512,4.512,4.5149,4.5288,4.535,4.5451,4.5491,4.5492,4.5657,4.5633,4.5599,4.5529,4.567,4.5729,4.5754,4.5438,4.5436,4.5435,4.5434,0,0,4.4765,4.4874,4.4904,4.495,4.5039,4.5118,4.523,4.5329,4.5384,4.5459,4.5552,4.5689,4.5658,4.5715,4.5722,4.5798,4.5942,4.5754,4.5756,4.5785,4.6125,4.6148,4.6176,4.593,4.5935,4.5939,4.6117,0,4.494,4.5137,4.5152,4.5329,4.5423,4.5405,4.5502,4.5567,4.5597,4.5681,4.5714,4.5811,4.5763,4.5797,4.5871,4.5909,4.601,4.5896,4.6016,4.602,4.5995,4.6208,4.6233,4.6399,4.6141,4.6145,4.6148,0,4.5172,4.5252,4.5439,4.5512,4.5553,4.564,4.5731,4.5812,4.5884,4.5901,4.5964,4.5961,4.6075,4.6002,4.6158,4.6081,4.613,4.6157,4.6163,4.6174,4.6091,4.6222,4.6452,4.6476,4.6185,4.6182,4.6179,0,4.5304,4.5459,4.559,4.563,4.572,4.5782,4.5822,4.589,4.5948,4.6028,4.6065,4.6158,4.6208,4.6279,4.63,4.6246,4.6456,4.6385,4.6472,4.6471,4.6515,4.6512,4.6755,4.6551,4.655,4.655,4.6549,0,4.5497,4.5612,4.565,4.5731,4.5858,4.5874,4.5999,4.6036,4.6096,4.6183,4.6174,4.6255,4.6279,4.6365,4.6383,4.6508,4.6532,4.6547,4.655,4.6547,4.6545,4.6579,4.6567,4.6557,4.6555,4.6554,4.6553,0,4.5666,4.5697,4.5838,4.5911,4.5932,4.6023,4.6085,4.6162,4.619,4.63,4.6327,4.6372,4.6472,4.6501,4.6621,4.6633,4.678,4.6774,4.6756,4.6755,4.6839,4.683,4.7111,4.7148,4.6921,4.6923,4.6925,0,4.5787,4.5874,4.5956,4.6014,4.6056,4.6149,4.6208,4.6227,4.6289,4.6377,4.6443,4.6542,4.6622,4.6783,4.6826,4.6918,4.6912,4.7004,4.6926,4.6919,4.6911,4.6905,4.6913,4.7019,4.7021,4.7023,4.7025,0,4.5998,4.6008,4.6093,4.6184,4.6254,4.6327,4.6396,4.6443,4.6472,4.6542,4.6644,4.6706,4.6829,4.6926,4.7019,4.706,4.7047,4.7049,4.7074,4.7071,4.7056,4.7063,4.6794,4.7042,4.7041,4.7039,4.7038,4.7038,4.6145,4.6221,4.629,4.6385,4.6439,4.6504,4.6579,4.6617,4.6702,4.6803,4.6809,4.6919,4.6988,4.7112,4.7158,4.7244,4.7216,4.7253,4.7261,4.7269,4.7275,4.7043,4.7261,4.7261,4.726,4.726,4.7259,0,4.6353,4.6397,4.6484,4.6581,4.6655,4.6637,4.6712,4.6775,4.6872,4.6938,4.7016,4.7133,4.7227,4.7278,4.7371,4.743,4.7427,4.7454,4.7449,4.7458,4.7295,4.7264,4.7456,4.7456,4.7455,4.7455,4.7455,4.7455,4.6471,4.6597,4.6616,4.6769,4.6812,4.6919,4.6964,4.7023,4.7075,4.7205,4.7284,4.7316,4.7375,4.7473,4.7558,4.757,4.7604,4.7635,4.7644,4.749,4.747,4.7451,4.7421,4.7643,4.7643,4.7799,4.7801,4.7802]},{"header":{"parameterUnit":"m.s-1","parameterCategory":1,"la1":30.2991,"la2":30.254,"lo1":-89.0895,"lo2":-89.0444,"dy":0.0017,"dx":0.0017,"nx":28,"ny":28,"refTime":"2023-08-14T09:00:00:Z","depth":0,"parameterNumber":3,"parameterNumberName":"V-component_of_WINDS"},"data":[0,0,0,0,0,0,0,0,0,0,0,0,0,0,0,0,0,0,0,0,0,0,0,0,0,0,0,0,0,0,0,0,0,0,0,0,0,0,0,0,0,0,0,0,0,0,0,0,0,0,0,0,0,0,0,0,0,0,-0.1387,-0.1386,0,-0.1312,-0.1311,-0.131,-0.129,-0.1291,-0.1291,-0.1291,-0.1213,-0.121,-0.1208,0,0,0,0,0,0,0,0,0,0,0,0,0,-0.1511,-0.1509,-0.1387,-0.1386,-0.1385,-0.1312,-0.1311,-0.131,-0.129,-0.1291,-0.1291,-0.1292,-0.1213,-0.1211,-0.1208,0,0,0,0,0,0,0,0,0,0,0,0,0,-0.1449,-0.1509,-0.1387,-0.1366,-0.1364,-0.1312,-0.1311,-0.131,-0.129,-0.1291,-0.1291,-0.1292,-0.1214,-0.1211,-0.1207,-0.1171,0,0,-0.1196,-0.1194,0,0,0,0,0,0,0,0,-0.1453,-0.1444,-0.137,-0.1368,-0.1365,-0.1311,-0.1326,-0.1263,-0.129,-0.1318,-0.1291,-0.1292,-0.1245,-0.1239,-0.1223,-0.1167,-0.1163,-0.1195,-0.1193,-0.1191,-0.119,0,0,0,0,0,0,0,-0.1457,-0.1448,-0.1357,-0.1369,-0.1366,-0.136,-0.1352,-0.1314,-0.1278,-0.1315,-0.1314,-0.1305,-0.1243,-0.1227,-0.1221,-0.1162,-0.1195,-0.1192,-0.119,-0.1188,-0.1073,-0.1072,0,0,0,0,0,0,-0.1465,-0.1451,-0.136,-0.1355,-0.1411,-0.1358,-0.1349,-0.1328,-0.1279,-0.1272,-0.1305,-0.1305,-0.1233,-0.1225,-0.1218,-0.1172,-0.1191,-0.1188,-0.1186,-0.1074,-0.1073,-0.1072,0,0,0,0,0,0,-0.1468,-0.1457,-0.1363,-0.1403,-0.139,-0.1355,-0.1331,-0.1326,-0.1309,-0.1271,-0.1264,-0.1294,-0.1233,-0.1223,-0.1183,-0.1169,-0.1186,-0.1183,-0.1075,-0.1074,-0.1073,-0.108,0,0,0,0,0,0,-0.1472,-0.1458,-0.1444,-0.1403,-0.1388,-0.1329,-0.1331,-0.1324,-0.1303,-0.1302,-0.1259,-0.1253,-0.1233,-0.1189,-0.1179,-0.1164,-0.118,-0.1076,-0.1074,-0.1073,-0.1081,-0.108,-0.1078,0,0,0,0,0,-0.1476,-0.1449,-0.1443,-0.1432,-0.137,-0.1328,-0.132,-0.1298,-0.1302,-0.1287,-0.1263,-0.1254,-0.1173,-0.1185,-0.1174,-0.1158,-0.1077,-0.1075,-0.1073,-0.1082,-0.108,-0.1078,0,0,0,0,0,0,-0.1488,-0.1443,-0.1436,-0.1395,-0.1366,-0.1325,-0.1306,-0.1297,-0.1265,-0.1265,-0.1239,-0.123,-0.1191,-0.117,-0.1184,-0.112,-0.1124,-0.112,-0.1135,-0.1133,-0.1131,-0.1137,-0.1177,0,0,0,0,0,-0.1487,-0.1457,-0.1418,-0.1385,-0.1371,-0.1341,-0.1322,-0.1308,-0.1276,-0.1263,-0.1236,-0.1205,-0.1173,-0.1152,-0.112,-0.1079,-0.1069,-0.1062,-0.1061,-0.106,-0.1056,-0.1034,-0.103,-0.1066,-0.1066,-0.1066,0,0,-0.1482,-0.1453,-0.1436,-0.1387,-0.1363,-0.1333,-0.1331,-0.1298,-0.1275,-0.1258,-0.1218,-0.1198,-0.1161,-0.1121,-0.1101,-0.1102,-0.1045,-0.1058,-0.1057,-0.1054,-0.1031,-0.1028,-0.1025,-0.1065,-0.1065,-0.1065,0,0,-0.1458,-0.1433,-0.1403,-0.1379,-0.1343,-0.1323,-0.1316,-0.1277,-0.1263,-0.1223,-0.1209,-0.1182,-0.1126,-0.1101,-0.1081,-0.1049,-0.104,-0.104,-0.1032,-0.101,-0.1007,-0.1004,-0.0993,-0.0989,-0.1037,-0.1037,-0.1037,0,-0.1456,-0.141,-0.1389,-0.1357,-0.1337,-0.1321,-0.129,-0.1268,-0.1223,-0.1209,-0.1211,-0.1142,-0.1116,-0.1069,-0.1062,-0.1046,-0.1037,-0.1044,-0.1009,-0.1006,-0.1004,-0.0992,-0.0988,-0.1037,-0.1037,-0.1037,-0.1037,0,-0.141,-0.1379,-0.1359,-0.1317,-0.1294,-0.1263,-0.1237,-0.1216,-0.1204,-0.1184,-0.1144,-0.1113,-0.1075,-0.1063,-0.1051,-0.1015,-0.1017,-0.1015,-0.1018,-0.1001,-0.099,-0.0985,-0.1037,-0.1037,-0.1037,-0.1037,0,0,-0.139,-0.1338,-0.1331,-0.1312,-0.1271,-0.1246,-0.1215,-0.1179,-0.1161,-0.1131,-0.1104,-0.1058,-0.1056,-0.1034,-0.1019,-0.1,-0.0977,-0.1,-0.0998,-0.0996,-0.0935,-0.0937,-0.0932,-0.0971,-0.097,-0.0969,-0.0938,0,-0.1361,-0.1305,-0.1285,-0.1239,-0.121,-0.1195,-0.1168,-0.114,-0.1121,-0.1094,-0.1073,-0.104,-0.104,-0.1027,-0.1007,-0.0984,-0.0964,-0.0986,-0.0945,-0.0944,-0.0954,-0.0927,-0.0928,-0.09,-0.0934,-0.0933,-0.0933,0,-0.1318,-0.1289,-0.124,-0.1204,-0.1191,-0.1167,-0.1132,-0.1106,-0.1074,-0.1062,-0.1038,-0.1024,-0.0991,-0.0998,-0.0952,-0.0967,-0.095,-0.0936,-0.0934,-0.0929,-0.0937,-0.092,-0.0891,-0.0886,-0.0926,-0.0926,-0.0927,0,-0.1309,-0.1256,-0.122,-0.1205,-0.1162,-0.1145,-0.1127,-0.1096,-0.1075,-0.1045,-0.1032,-0.0998,-0.0979,-0.0953,-0.0931,-0.0938,-0.0887,-0.0892,-0.0876,-0.0876,-0.0865,-0.0866,-0.0832,-0.0855,-0.0855,-0.0855,-0.0855,0,-0.1277,-0.1248,-0.1216,-0.1193,-0.116,-0.1138,-0.1106,-0.1086,-0.1059,-0.1033,-0.1018,-0.0994,-0.0967,-0.0939,-0.0922,-0.0886,-0.0878,-0.0867,-0.0863,-0.0868,-0.0869,-0.0855,-0.0857,-0.0854,-0.0854,-0.0854,-0.0854,0,-0.126,-0.1237,-0.1197,-0.1161,-0.1151,-0.1128,-0.1096,-0.1074,-0.1055,-0.1022,-0.1013,-0.0984,-0.095,-0.0926,-0.0883,-0.0871,-0.0833,-0.0829,-0.0844,-0.0842,-0.0827,-0.0828,-0.0782,-0.0775,-0.0803,-0.0803,-0.0803,0,-0.1241,-0.1219,-0.118,-0.1162,-0.1143,-0.1114,-0.1093,-0.1071,-0.1051,-0.1014,-0.0996,-0.0962,-0.0933,-0.088,-0.0855,-0.0822,-0.0816,-0.0802,-0.0811,-0.0817,-0.0816,-0.0817,-0.0815,-0.0801,-0.0801,-0.08,-0.08,0,-0.121,-0.1201,-0.1172,-0.114,-0.1116,-0.1089,-0.1062,-0.1048,-0.1021,-0.0998,-0.0965,-0.0943,-0.0899,-0.0865,-0.083,-0.081,-0.0801,-0.0798,-0.0793,-0.0797,-0.0807,-0.0801,-0.084,-0.0799,-0.0799,-0.0799,-0.0799,-0.0799,-0.1192,-0.1171,-0.1141,-0.1109,-0.1087,-0.1063,-0.104,-0.1019,-0.0991,-0.0954,-0.0943,-0.0908,-0.0878,-0.0829,-0.081,-0.0782,-0.0782,-0.0774,-0.0772,-0.077,-0.0771,-0.0812,-0.0775,-0.0775,-0.0775,-0.0775,-0.0775,0,-0.116,-0.114,-0.1112,-0.1075,-0.105,-0.1045,-0.1015,-0.0995,-0.0964,-0.0937,-0.091,-0.0871,-0.0839,-0.0811,-0.0777,-0.0761,-0.0755,-0.0752,-0.0753,-0.0749,-0.0772,-0.078,-0.0757,-0.0757,-0.0757,-0.0757,-0.0757,-0.0757,-0.114,-0.1105,-0.1092,-0.1046,-0.1026,-0.0992,-0.0976,-0.0953,-0.0931,-0.0889,-0.0863,-0.0845,-0.0818,-0.0782,-0.0752,-0.0745,-0.0733,-0.0731,-0.0723,-0.0745,-0.0747,-0.0749,-0.0756,-0.0729,-0.0729,-0.0702,-0.0702,-0.0702]}]]